Location: Lake Arresoe
(56.0000°N, 12.5000°E)
Time: 11:08:45
(UTC+02:00)

Resurs 1-4 Rocket - Pass Details

Date: 20 August 2020
Orbit: 799 x 815 km, 98.6° (Epoch: 23 September)

Event Time Altitude Azimuth Distance (km) Brightness Sun altitude
Rises 01:27:25 0° 24° (NNE) 3,328 6.5 -21.6°
Reaches altitude 10° 01:30:32 10° 43° (NE) 2,390 5.2 -21.5°
Maximum altitude 01:34:06 18° 86° (E) 1,876 4.1 -21.5°
Enters shadow 01:36:36 14° 119° (ESE) 2,138 4.1 -21.5°
